This is the latest recevied weather packets stored in our database for station/object KJ4EBE. If no packets are shown the sender has not sent any weather packets the latest 10 day(s).
| Time | Temp. | Humidity | Pressure | Rain* | Wind** | Luminosity | Snow |
|---|---|---|---|---|---|---|---|
| 1777922528 | 27.22° C | 63% | 1011.3 hPa | 0 mm | - | 800 W/m² | - |
| 1777922226 | 26.67° C | 62% | 1011.3 hPa | 0 mm | - | 778 W/m² | - |
| 1777921922 | 26.67° C | 62% | 1011.4 hPa | 0 mm | - | 781 W/m² | - |
| 1777921618 | 26.67° C | 64% | 1011.4 hPa | 0 mm | - | 810 W/m² | - |
| 1777921314 | 26.11° C | 64% | 1011.4 hPa | 0 mm | - | 838 W/m² | - |
| 1777921011 | 26.67° C | 62% | 1011.6 hPa | 0 mm | - | 798 W/m² | - |
| 1777920707 | 26.11° C | 64% | 1011.6 hPa | 0 mm | - | 763 W/m² | - |
| 1777920404 | 25.56° C | 65% | 1011.5 hPa | 0 mm | - | 824 W/m² | - |
| 1777920099 | 25.56° C | 65% | 1011.6 hPa | 0 mm | - | 792 W/m² | - |
| 1777919796 | 25.56° C | 66% | 1011.8 hPa | 0 mm | - | 861 W/m² | - |
| 1777919493 | 25.56° C | 66% | 1011.9 hPa | 0 mm | - | 822 W/m² | - |
| 1777919191 | 25.56° C | 66% | 1011.7 hPa | 0 mm | - | 785 W/m² | - |
| 1777918888 | 25.56° C | 67% | 1012.1 hPa | 0 mm | - | 196 W/m² | - |
| 1777918586 | 24.44° C | 67% | 1012.2 hPa | 0 mm | - | 420 W/m² | - |
| 1777918283 | 24.44° C | 68% | 1012.1 hPa | 0 mm | - | 480 W/m² | - |
| 1777917982 | 25° C | 68% | 1012.1 hPa | 0 mm | - | 379 W/m² | - |
| 1777917681 | 24.44° C | 67% | 1012.3 hPa | 0 mm | - | 534 W/m² | - |
| 1777917377 | 24.44° C | 68% | 1012.4 hPa | 0 mm | - | 764 W/m² | - |
| 1777917074 | 23.89° C | 69% | 1012.2 hPa | 0 mm | - | 259 W/m² | - |
| 1777916772 | 23.89° C | 70% | 1012.7 hPa | 0 mm | - | 409 W/m² | - |
| 1777916468 | 23.33° C | 70% | 1012.6 hPa | 0 mm | - | 361 W/m² | - |
| 1777916165 | 23.89° C | 69% | 1012.4 hPa | 0 mm | - | 424 W/m² | - |
| 1777915863 | 23.33° C | 70% | 1012.6 hPa | 0 mm | - | 400 W/m² | - |
| 1777915559 | 23.89° C | 69% | 1012.6 hPa | 0 mm | - | 397 W/m² | - |
| 1777915256 | 23.33° C | 69% | 1012.6 hPa | 0 mm | - | 403 W/m² | - |
* Rain latest hour (hover to see other rain measurements)
** Current wind speed in m/s (hover to see current wind gust speed)